Vertical_Velocity
0 0 0 -0 -1 0 1 -2 -4 -4 -1 -3 -3 -3 -3 -0 1 0 -1 -1 -1 -0 1 0 -4 -5 -5 0 0 -0 -1 -2 -1 2 1 1 2 -1 -3 -4 -1 0 -1 -0
1 -0 -0 0 -0 0 -0 -0 1 1 -6 -3 0 1 1 -2 -1 -1 -0 -1 -0 -0 -2 -6 -3 1 1 -1 1 -2 -2 -2 -0 2 1 2 -2 -3 -2 -2 -1 -1 -1 -3
-2 0 -1 -5 -6 -2 -1 0 -4 -1 -11 -0 1 -0 -1 -0 -1 -3 -3 -3 -3 -2 -2 2 2 -1 -0 1 -2 -2 -1 1 -0 -1 -0 -1 -2 -3 -0 -1 -2 -0 -1 1
-1 -2 -4 -11 -0 -1 -2 -2 0 0 -0 -2 -1 -2 -1 -2 -3 -3 -2 -2 -1 -1 1 -2 -2 -2 1 -1 -1 0 -0 0 -0 -1 -2 -2 -1 -1 -1 -1 -0 1 -0 -1
-2 -1 -7 -3 0 -2 -4 -8 -3 -2 0 1 -1 -1 -3 -5 -2 -1 -3 3 3 3 1 4 3 -1 -0 1 -2 -1 -1 -1 -1 -1 -1 -1 -1 -2 1 -1 -1 -0 0 -0
0 -1 -2 -7 -1 0 -1 -7 0 1 -0 -2 0 0 -6 -3 -2 -0 3 3 1 2 0 2 -0 -2 -2 -2 -0 1 -1 -1 -2 0 0 -1 -2 -1 -1 -0 0 0 0 0
0 -1 -8 -3 -1 0 -4 -17 -1 -1 -2 -2 -3 -9 -2 -2 4 7 4 0 -2 1 1 -0 -2 -1 -0 -1 1 -1 -1 -1 1 1 -1 0 -2 -2 -2 -1 -2 -0 0 0
-0 0 -7 -1 1 -4 -8 -1 -0 -0 -2 -3 0 -0 0 0 2 0 -4 -5 -2 -1 -2 -1 -1 -4 -1 -1 -2 -2 -1 1 -0 2 2 2 -2 -1 -2 -1 -1 1 1 -0
-7 -10 -3 -4 -1 1 0 -1 1 -1 6 3 5 4 5 3 2 3 10 7 -9 -3 3 -1 -3 -2 -1 -1 -1 -1 1 2 0 -1 1 0 0 0 -2 -1 0 1 0 -0
-1 -3 -4 -2 -1 -3 5 -2 1 1 1 3 3 3 1 3 5 3 -8 -6 0 -3 -2 -0 1 0 -1 -1 -2 -0 -1 -1 -2 -2 1 0 -1 1 -1 -0 -1 1 -1 -1
-3 -5 -1 -2 0 1 -3 -1 1 2 1 1 2 4 4 1 1 -10 -9 3 7 -5 1 1 0 1 -0 0 -0 1 -2 -0 -2 -1 -0 -0 -1 1 -1 -0 -0 0 1 1
-7 -2 -0 -4 -0 1 0 0 2 1 0 -2 1 2 4 -0 -9 -3 4 -0 -1 2 0 -0 -1 -1 -0 -1 -0 -3 -1 -2 -2 -1 -2 -1 -1 -1 -1 -0 0 -1 -1 -0
-3 3 1 1 1 3 0 0 0 1 4 8 16 11 4 -12 2 2 -2 -3 -5 -0 -1 -2 -0 -1 -0 -1 1 1 -5 -3 -1 -0 -1 -1 -1 1 -3 -0 -1 0 -1 -1
4 0 -1 2 -1 -1 0 2 4 7 7 -2 -5 3 -11 -12 -1 2 -1 2 -0 0 0 -0 -0 -1 -5 -4 1 -3 0 -0 0 -0 -1 0 0 -0 0 -1 1 -0 1 -3
-2 1 2 1 3 2 3 3 1 4 10 4 0 -12 -4 3 2 -3 -1 -1 -0 -0 2 2 -3 -1 -5 1 -2 -3 0 -1 -1 0 4 1 -0 1 0 1 -0 -2 -2 -2
3 2 4 1 2 2 3 9 -1 4 -4 -10 -7 3 3 -8 -3 3 1 -0 0 2 4 -4 -4 -3 -3 -0 1 0 0 -0 -1 -2 -0 -2 -1 1 2 1 0 -1 -1 -3
1 -2 2 -1 0 5 5 1 -3 -8 -6 -5 -10 -2 9 0 -1 -2 0 2 4 2 -3 -4 -4 -4 1 -0 1 -1 -2 -3 0 1 3 2 -0 -1 1 1 -1 -1 -1 -1
-1 0 -0 -3 -6 -6 -5 -8 -10 -8 -4 -5 -2 -1 0 1 2 4 3 -0 -4 -3 -1 1 -3 -0 1 2 2 2 0 -1 -1 -2 -1 -1 1 2 1 -0 -1 -1 -1 -2
-0 -5 -4 -6 -3 -2 -0 2 3 5 6 2 1 1 2 2 1 0 -1 0 -2 -6 -6 9 3 1 1 2 3 1 0 1 -0 -2 -1 -1 1 2 1 -0 -1 -0 0 -1
-0 1 1 -0 -0 1 1 1 0 -1 -1 1 1 1 0 3 1 -2 -3 -1 2 4 1 1 4 2 3 1 1 -0 0 1 0 -2 -1 -0 1 0 1 0 -0 -1 -0 0
3 2 1 3 2 1 1 2 2 4 3 0 -3 -3 -3 -2 -2 -2 -2 -9 5 -1 -3 -0 1 1 2 0 0 1 1 1 0 1 2 -0 0 1 2 2 1 1 -0 -0
1 1 1 2 2 2 2 -1 -3 -1 -1 -0 2 2 -1 2 2 1 9 -2 -1 1 1 -1 0 0 -1 1 -0 -0 -1 0 1 1 0 -0 -2 -0 0 1 1 0 1 0
2 -0 -1 -0 -1 -1 0 1 2 2 2 1 1 0 -1 0 5 -3 -12 13 -2 0 -1 0 4 9 4 -1 0 -1 -2 1 -0 1 1 1 2 0 0 1 1 1 -0 -0
0 1 -1 -1 0 3 -1 -4 -3 -1 1 0 0 -0 -6 -14 4 4 1 -5 1 3 2 2 -1 7 2 0 1 1 0 0 -1 -1 -2 -1 -2 2 6 0 -1 -2 -0 1
1 -0 0 1 -2 -2 -1 -2 -1 -3 -3 -1 -0 1 3 6 0 -8 1 -0 -0 1 -0 1 -1 2 7 2 0 -0 0 -1 -1 -0 -1 -1 0 1 1 3 11 -0 -0 2
0 -0 -1 -2 -2 -3 -3 -2 -2 -4 -5 -6 0 -4 -2 -0 -1 -3 -3 1 3 2 7 6 1 5 6 2 1 -0 -1 -2 0 -0 -0 0 0 0 0 -1 -2 -0 2 1
-1 1 1 -0 -0 0 -0 -2 -3 -3 -2 -3 -3 -1 -3 -2 -2 -0 0 -0 -0 0 1 6 8 7 5 3 2 2 1 0 -1 -0 -0 0 0 1 1 0 -0 1 1 4
Height
1522 1522 1520 1518 1519 1523 1521 1522 1522 1517 1519 1510 1510 1511 1513 1517 1520 1523 1527 1531 1534 1537 1540 1541 1543 1545 1545 1545 1546 1546 1545 1542 1540 1538 1536 1532 1529 1524 1520 1515 1511 1507 1504 1502
1523 1525 1525 1520 1518 1519 1521 1521 1519 1519 1512 1505 1506 1508 1511 1512 1516 1519 1523 1527 1531 1533 1535 1537 1539 1540 1541 1542 1542 1541 1539 1537 1535 1533 1531 1528 1523 1519 1514 1510 1507 1503 1501 1500
1525 1531 1526 1525 1509 1509 1510 1510 1506 1511 1496 1503 1505 1506 1506 1508 1511 1514 1518 1523 1526 1529 1531 1533 1534 1536 1537 1538 1538 1536 1534 1531 1530 1528 1526 1522 1517 1513 1510 1506 1503 1501 1499 1498
1527 1535 1526 1500 1501 1502 1503 1501 1500 1498 1498 1499 1500 1501 1502 1504 1506 1510 1515 1519 1522 1524 1527 1529 1530 1532 1534 1533 1532 1531 1529 1527 1525 1522 1518 1515 1512 1509 1505 1502 1500 1498 1496 1494
1526 1527 1515 1494 1499 1501 1501 1491 1489 1492 1495 1498 1500 1501 1500 1500 1502 1506 1511 1515 1518 1521 1523 1525 1526 1528 1529 1529 1527 1526 1524 1521 1519 1516 1513 1510 1507 1504 1501 1498 1497 1495 1493 1491
1538 1523 1519 1498 1495 1496 1497 1499 1485 1487 1491 1495 1499 1501 1495 1495 1498 1503 1508 1511 1514 1517 1520 1523 1524 1524 1524 1523 1521 1520 1518 1515 1513 1511 1507 1504 1502 1499 1496 1494 1492 1491 1489 1488
1541 1521 1511 1496 1497 1496 1503 1497 1485 1485 1487 1492 1495 1491 1491 1492 1495 1500 1504 1508 1511 1516 1519 1519 1520 1520 1519 1518 1516 1514 1512 1511 1507 1504 1501 1498 1496 1494 1491 1490 1488 1487 1485 1484
1538 1527 1512 1493 1497 1499 1490 1485 1485 1484 1485 1485 1486 1487 1488 1490 1492 1496 1500 1504 1509 1512 1515 1515 1514 1514 1513 1511 1510 1508 1507 1504 1502 1500 1495 1492 1490 1489 1487 1485 1484 1483 1482 1480
1508 1499 1491 1491 1488 1487 1486 1486 1485 1485 1484 1485 1484 1484 1487 1489 1493 1498 1503 1501 1504 1511 1512 1511 1510 1508 1507 1505 1504 1502 1501 1498 1495 1493 1491 1488 1485 1483 1481 1480 1479 1478 1477 1475
1501 1487 1487 1486 1486 1485 1484 1484 1484 1483 1483 1482 1482 1483 1486 1488 1490 1493 1496 1503 1502 1505 1507 1506 1505 1503 1501 1500 1498 1496 1494 1492 1490 1488 1485 1482 1480 1478 1476 1475 1474 1474 1472 1470
1496 1486 1484 1482 1482 1482 1481 1480 1478 1478 1477 1477 1478 1480 1483 1486 1490 1494 1498 1502 1500 1503 1504 1502 1501 1499 1497 1494 1492 1490 1489 1486 1483 1482 1480 1476 1474 1473 1472 1471 1470 1469 1467 1465
1487 1480 1482 1480 1480 1479 1477 1476 1475 1474 1473 1473 1474 1477 1482 1486 1488 1497 1498 1499 1500 1500 1500 1499 1497 1495 1492 1489 1485 1483 1481 1480 1478 1476 1474 1471 1469 1467 1467 1466 1465 1464 1462 1460
1481 1479 1478 1477 1476 1475 1473 1472 1470 1470 1472 1474 1476 1476 1480 1486 1491 1493 1496 1497 1497 1497 1495 1494 1492 1490 1488 1487 1482 1477 1475 1476 1474 1470 1468 1467 1464 1462 1461 1461 1459 1458 1457 1455
1478 1476 1474 1474 1473 1472 1471 1470 1470 1471 1472 1475 1480 1483 1483 1491 1492 1493 1494 1493 1493 1492 1490 1489 1487 1486 1484 1482 1477 1475 1472 1469 1468 1465 1463 1461 1459 1457 1456 1454 1453 1452 1451 1450
1476 1476 1475 1475 1474 1472 1472 1472 1473 1476 1478 1479 1482 1487 1489 1491 1492 1492 1491 1490 1489 1488 1486 1483 1483 1482 1481 1477 1472 1470 1467 1464 1462 1460 1457 1455 1453 1451 1450 1448 1447 1446 1445 1444
1478 1476 1476 1475 1476 1476 1477 1479 1479 1481 1484 1487 1490 1490 1491 1491 1491 1488 1487 1486 1484 1483 1481 1479 1479 1478 1476 1472 1468 1464 1461 1458 1456 1452 1450 1448 1447 1445 1443 1442 1441 1439 1438 1438
1478 1479 1480 1480 1482 1483 1484 1486 1488 1490 1491 1491 1491 1491 1490 1489 1488 1487 1485 1483 1481 1479 1478 1476 1475 1473 1470 1466 1462 1458 1455 1452 1449 1446 1443 1442 1439 1437 1436 1435 1434 1433 1431 1431
1479 1481 1484 1485 1487 1488 1489 1490 1490 1491 1491 1491 1489 1488 1488 1487 1486 1484 1481 1479 1477 1475 1473 1472 1468 1466 1463 1460 1456 1452 1449 1446 1443 1440 1437 1435 1432 1430 1428 1428 1427 1426 1425 1424
1488 1488 1489 1490 1490 1490 1490 1490 1489 1488 1488 1488 1488 1487 1486 1484 1482 1480 1477 1475 1473 1470 1467 1466 1462 1459 1456 1454 1450 1446 1442 1439 1436 1433 1431 1428 1425 1423 1421 1421 1420 1420 1419 1418
1491 1491 1491 1491 1491 1491 1491 1491 1491 1490 1490 1488 1487 1486 1484 1482 1479 1476 1474 1469 1467 1464 1460 1457 1453 1451 1449 1446 1442 1439 1435 1432 1429 1426 1424 1422 1419 1417 1415 1414 1413 1412 1412 1411
1494 1494 1493 1493 1492 1491 1491 1490 1490 1489 1488 1487 1485 1483 1481 1477 1474 1470 1466 1461 1459 1456 1452 1449 1446 1443 1441 1438 1434 1431 1428 1425 1422 1420 1418 1415 1412 1410 1408 1407 1405 1404 1403 1402
1495 1495 1494 1493 1493 1492 1491 1490 1490 1488 1487 1484 1482 1479 1475 1471 1468 1463 1460 1457 1452 1448 1444 1441 1439 1436 1433 1430 1427 1423 1419 1416 1415 1413 1411 1409 1406 1404 1401 1399 1398 1396 1394 1392
1494 1494 1493 1493 1493 1492 1491 1490 1488 1485 1482 1480 1476 1472 1468 1463 1459 1454 1448 1447 1443 1440 1436 1433 1430 1427 1425 1422 1419 1416 1413 1410 1408 1406 1404 1402 1400 1397 1395 1392 1390 1388 1386 1384
1494 1492 1492 1492 1492 1491 1488 1486 1484 1481 1477 1473 1470 1466 1461 1456 1451 1448 1444 1439 1436 1432 1428 1425 1422 1420 1418 1415 1413 1410 1407 1404 1401 1399 1396 1394 1392 1390 1388 1386 1383 1380 1378 1375
1493 1492 1491 1490 1488 1486 1484 1481 1477 1473 1470 1466 1463 1460 1456 1453 1448 1439 1436 1432 1428 1424 1421 1418 1415 1413 1411 1408 1406 1403 1400 1397 1395 1392 1389 1386 1384 1381 1379 1378 1376 1373 1370 1368
1492 1491 1489 1487 1486 1483 1480 1476 1473 1469 1465 1459 1456 1452 1448 1444 1440 1435 1430 1426 1422 1417 1414 1411 1408 1406 1404 1402 1399 1397 1394 1392 1390 1387 1384 1381 1378 1375 1371 1368 1366 1365 1363 1360
1490 1489 1486 1484 1482 1479 1476 1473 1469 1465 1461 1456 1449 1446 1441 1436 1432 1428 1423 1419 1414 1411 1407 1404 1401 1399 1397 1395 1393 1392 1390 1388 1386 1383 1381 1378 1375 1371 1367 1364 1361 1358 1356 1354